FENGYUN 1C DEB

Satellite information

Favourite Embed

Satellite Type and Status

DEBRISIN ORBIT

Key statistics

Satellite FENGYUN 1C DEB at a glance.

Uptime

9663

Days in orbit

Revolutions

≈ 13.5

Per day

Orbit

SSO

Sun Synchronous Orbit

Inclination

101.4

Latest

Satellite identification and parameters

Extended collection of information and parameters for FENGYUN 1C DEB.

Object identification

Identified? True

Debris? True

Object name: FENGYUN 1C DEB

International designator: 1999-025DWN

Object number (NORAD): 36261

Object ID (CCSDS): 36261

Country: PEOPLES REPUBLIC OF CHINA (PRC)

Current information (Y/N): Y

RCS size: SMALL

Orbital parameters

Period: 107.03 minutes

Inclination: 101.3659 deg

SMA: 7467.29 km

Apoapsis: 1354.115 km

Periapsis: 824.194 km

RAAN: 180.2707 deg

Eccentricy: 0.0354828

Argument of periapsis: 195.498 deg

Mean anomaly: 163.5051 deg

Mean motion: 13.45421235 rev/day

Mean motion (dot): 0.00000423 rev/day2

B* drag term: 0.00055232 1/REarth

Two-line elements (TLE)

Creation date: Oct. 22, 2025, 6:36 a.m.

Reference frame: TEME

Reference center: EARTH

Epoch: Oct. 21, 2025, 10:28 p.m. UTC

TLE line 0: 0 FENGYUN 1C DEB

TLE line 1: 1 36261U 99025DWN 25294.93654929 .00000423 00000-0 55232-3 0 9991

TLE line 2: 2 36261 101.3659 180.2707 0354828 195.4980 163.5051 13.45421235837364

Live tracking on map

Real-time ground track for satellite FENGYUN 1C DEB.

In-orbit conjunctions

A list of the most updated potential collisions computed for object FENGYUN 1C DEB.

Target Orbit TCA Probability of collision Miss distance Type
FENGYUN 1C DEB SSO 2025-02-08 09:39:19 0.0004223641 60.0 (m) DEBRIS
JD 2 LEO 2024-10-05 10:32:54 0.0002967935 562.0 (m) PAYLOAD
FENGYUN 1C DEB SSO 2024-09-26 11:16:30 0.0002435147 333.0 (m) DEBRIS

Associated space launch

Chinese polar orbiting meteorological satellite

FENGYUN 1C DEB was lifted into orbit during the mission ‘Long March 4B | Feng Yun 1C’, on board a Long March 4B space rocket.

The launch took place on May 10, 1999, 1:33 a.m. from Launch Complex 7.

For more information about the launch, click the button.

Launch to space Long March 4B | Feng Yun 1C
Long March 4B | Feng Yun 1C

Agency: N/A

Status: Launch Successful

Launch date: May 10, 1999, 1:33 a.m. UTC

Rocket: Long March 4B

Launch pad: Launch Complex 7

Location: Taiyuan Satellite Launch Center, People's Republic of China

...

Latest news about this satellite

There are no fresh news available about this satellite. Check back as we update our databases every day.


Newsletter sign-up

Weekly statistics, charts and insights to help you stay on top of the space industry.